KAZSAT-3

Last updated on Thu Aug 13 2026 00:02:59 GMT+0000 (Coordinated Universal Time)

1 39728U 14023B 26224.51238122 .00000042 00000+0 00000+0 0 9993 2 39728 0.0173 65.5931 0000860 113.7278 24.6029 1.00275539 43028
UTC large
Height (km)
Speed (km/s)
/
Latitude / Longitude
Inclination (degrees)
Orbital Period (minutes)
Azimuth
Elevation
Range (km)
Doppler Factor

Next 0 passes for location: London (51.5072 / 0.1276)

No passes found over London.
KAZSAT-3